Location: Asheville, NC
(35.6000°N, 82.5500°W)
Time: 22:46:56
(UTC-04:00)

Vanguard 2 - Pass Details

Date: 11 December 2017
Orbit: 553 x 2939 km, 32.9° (Epoch: 26 April)

Event Time Altitude Azimuth Distance (km) Brightness Sun altitude
Rises 21:55:46 0° 266° (W) 2,711 - -55.6°
Reaches altitude 10° 21:58:27 10° 245° (WSW) 1,863 - -56.2°
Maximum altitude 22:01:15 18° 202° (SSW) 1,543 - -56.7°
Drops below altitude 10° 22:04:29 10° 159° (SSE) 2,202 - -57.4°
Sets 22:08:04 0° 141° (SE) 3,451 - -58.1°
